GEESAT-4 04 (65122 NORAD) Tracking and Keplerian Element Data

This shows tracking and keplerian element data for the satellite.

Feedback or suggestion? Click here.




ElementValue
Catalog65122
NameGEESAT-4 04
Epoch Orbit2001
Epoch Day354.19905821
Epoch Year2025
RAAN272.0749
Inclination49.9842
Eccentricity0.0001078
Argument of Perigee1.3681
Mean Anonmoly358.7284
Mean Motion15.43057236
Decay Rate0.00030774
L11 65122U 25170D 25354.19905821 .00030774 00000+0 69087-3 0 9998
L22 65122 49.9842 272.0749 0001078 1.3681 358.7284 15.43057236 20016



Live tracking and technical data element details for GEESAT-4 04 (NORAD 65122). GEESAT-4 04 can be tracked NOW for your location showing map with azimuth and elevation plus other details from your city location.







IsCatalogInMostPopularTable: catalog: 65122, numindb: 5
Update: records affected: 1



GetName: 65122 GEESAT-4 04

Hit Count: updated at: Tue, 21 Apr 2026 20:05:45 GMT